Location: Newark
(29.9790°N, 31.1340°E)
Time: 23:49:23
(UTC+00:00)

A-11 Canister half - Visible Passes

Search period start: 22 January 2020 00:00
Search period end: 01 February 2020 00:00
Orbit: 1517 x 1683 km, 47.2° (Epoch: 22 January)

Date Brightness Start Highest point End Pass type
(mag) Time Alt. Az. Time Alt. Az. Time Alt. Az.
22 Jan 10.0 02:11:17 27° N 02:12:59 28° N 02:20:43 10° ENE visible
22 Jan 9.4 04:10:33 10° NW 04:19:40 57° NNE 04:28:58 10° ESE visible
23 Jan 10.1 01:49:37 28° N 01:49:56 28° N 01:57:36 10° ENE visible
23 Jan 9.5 03:47:49 11° NW 03:56:43 54° NNE 04:05:56 10° ESE visible
24 Jan 10.2 01:27:58 27° NNE 01:27:58 27° NNE 01:34:29 10° ENE visible
24 Jan 9.5 03:26:10 15° NW 03:33:45 52° NNE 03:42:52 10° ESE visible
25 Jan 10.4 01:06:21 24° NNE 01:06:21 24° NNE 01:11:22 10° ENE visible
25 Jan 9.5 03:04:33 21° NW 03:10:48 49° NNE 03:19:48 10° ESE visible
25 Jan 10.8 18:16:40 10° S 18:17:28 12° SSE 18:17:28 12° SSE visible
26 Jan 10.7 00:44:46 20° NE 00:44:46 20° NE 00:48:16 10° ENE visible
26 Jan 9.6 02:42:58 27° NNW 02:47:49 47° NNE 02:56:44 10° E visible
26 Jan 10.6 17:54:14 10° SSE 17:56:18 15° SSE 17:56:18 15° SSE visible
27 Jan 10.9 00:23:13 16° NE 00:23:13 16° NE 00:25:11 10° ENE visible
27 Jan 9.6 02:21:26 33° NNW 02:24:51 44° NNE 02:33:39 10° E visible
27 Jan 9.1 04:20:56 10° NW 04:30:03 65° SW 04:39:23 10° SSE visible
27 Jan 10.5 17:31:51 10° SSE 17:35:11 16° SE 17:35:11 16° SE visible
27 Jan 10.9 19:32:08 10° SW 19:33:25 15° SW 19:33:25 15° SW visible
28 Jan 11.2 00:01:43 11° NE 00:01:43 11° NE 00:02:07 10° NE visible
28 Jan 9.6 01:59:56 38° N 02:01:52 42° NNE 02:10:35 10° E visible
28 Jan 9.0 03:58:08 11° NW 04:07:10 69° SW 04:16:32 10° SE visible
28 Jan 10.4 17:09:33 10° SSE 17:14:06 16° SE 17:14:06 16° SE visible
28 Jan 10.5 19:09:14 10° SW 19:12:21 24° SW 19:12:21 24° SW visible
29 Jan 9.7 01:38:28 40° NNE 01:38:53 40° NNE 01:47:30 10° E visible
29 Jan 9.0 03:36:41 17° NW 03:44:17 74° SW 03:53:41 10° SE visible
29 Jan 10.4 16:47:22 10° SSE 16:52:05 15° ESE 16:53:03 14° ESE visible
29 Jan 10.0 18:46:22 10° SW 18:51:18 34° SSW 18:51:18 34° SSW visible
30 Jan 9.9 01:17:04 37° NE 01:17:04 37° NE 01:24:24 10° E visible
30 Jan 8.9 03:15:17 25° NW 03:21:24 79° SW 03:30:48 10° SE visible
30 Jan 10.5 16:25:21 10° SSE 16:29:14 13° ESE 16:32:02 11° ESE visible
30 Jan 9.5 18:23:31 10° SSW 18:30:17 47° S 18:30:17 47° S visible
31 Jan 10.2 00:55:43 31° ENE 00:55:43 31° ENE 01:01:18 10° E visible
31 Jan 8.8 02:53:57 35° NW 02:58:30 84° SW 03:07:55 10° SE visible
31 Jan 10.6 16:03:41 10° SE 16:06:24 11° ESE 16:09:04 10° ESE visible
31 Jan 9.1 18:00:40 10° SSW 18:09:17 57° SSE 18:09:17 57° SSE visible
31 Jan 11.0 20:06:09 10° WSW 20:07:32 15° W 20:07:32 15° W visible
